FW2359 Weather Reports


Display with metric or nautical units.
time (UTC)temp
F
wind
direction
speed
MPH
gust
MPH
rain 1hr
in
rain 24hr
in
rain mn
in
humidity
%
barometer
mb
20260510001530 80 37 4.0 6.0 0.00 0.00 0.00 25 1015.9
20260510000031 82 20 5.0 8.0 0.00 0.00 0.00 24 1016.3
20260509234529 82 28 4.0 7.0 0.00 0.00 0.00 23 1016.5
20260509233031 82 16 5.0 11.0 0.00 0.00 0.00 24 1016.6
20260509231605 82 359 5.0 9.0 0.00 0.00 0.00 24 1016.9
20260509230029 82 359 5.0 12.0 0.00 0.00 0.00 24 1017.3
20260509224537 82 360 5.0 10.0 0.00 0.00 0.00 25 1017.4
20260509221531 81 32 4.0 7.0 0.00 0.00 0.00 26 1017.9
20260509220032 80 39 5.0 9.0 0.00 0.00 0.00 28 1018.1
20260509214606 79 3 6.0 12.0 0.00 0.00 0.00 32 1018.4
20260509213035 78 13 6.0 11.0 0.00 0.00 0.00 34 1018.6
20260509211530 77 359 6.0 9.0 0.00 0.00 0.00 36 1018.9
20260509210031 76 359 6.0 12.0 0.00 0.00 0.00 37 1019.1
20260509201602 75 15 6.0 11.0 0.00 0.00 0.00 40 1019.7
20260509200031 74 3 6.0 10.0 0.00 0.00 0.00 42 1020.1
20260509194531 73 12 6.0 11.0 0.00 0.00 0.00 43 1020.3
20260509193030 72 2 6.0 9.0 0.00 0.00 0.00 44 1020.5
20260509190030 69 349 5.0 8.0 0.00 0.00 0.00 49 1020.9
20260509184603 68 328 4.0 10.0 0.00 0.00 0.00 50 1021.1
20260509183032 67 326 4.0 8.0 0.00 0.00 0.00 53 1021.2
20260509181532 66 297 3.0 8.0 0.00 0.00 0.00 53 1021.3
20260509174529 64 287 2.0 5.0 0.00 0.00 0.00 58 1021.4
20260509173109 63 323 1.0 4.0 0.00 0.00 0.00 61 1021.6
20260509171529 61 258 1.0 5.0 0.00 0.00 0.00 65 1021.8
20260509164531 57 275 1.0 3.0 0.00 0.00 0.00 71 1022.1
20260509163032 56 266 1.0 4.0 0.00 0.00 0.00 72 1022.2
20260509161529 55 267 1.0 5.0 0.00 0.00 0.00 74 1022.5
20260509160106 54 236 2.0 5.0 0.00 0.00 0.00 77 1022.6
20260509154607 53 213 1.0 4.0 0.00 0.00 0.00 80 1022.6
20260509153030 52 241 2.0 5.0 0.00 0.00 0.00 81 1022.5
20260509151534 52 255 0.0 4.0 0.00 0.00 0.00 82 1022.5
20260509150039 51 300 3.0 6.0 0.00 0.00 0.00 84 1022.6
20260509144533 50 293 2.0 4.0 0.00 0.00 0.00 85 1022.6
20260509143029 50 217 1.0 6.0 0.00 0.00 0.00 86 1022.5
20260509141538 48 137 0.0 3.0 0.00 0.00 0.00 87 1022.4
20260509140032 47 138 3.0 6.0 0.00 0.00 0.00 87 1022.4
20260509134533 47 148 4.0 7.0 0.00 0.00 0.00 86 1022.5
20260509133036 47 136 4.0 6.0 0.00 0.00 0.00 85 1022.4
20260509131530 48 170 4.0 8.0 0.00 0.00 0.00 85 1022.2
20260509130030 47 187 1.0 7.0 0.00 0.00 0.00 85 1022.1
20260509124538 47 130 2.0 4.0 0.00 0.00 0.00 84 1021.9
20260509123027 47 79 1.0 6.0 0.00 0.00 0.00 81 1021.9
20260509121532 50 162 3.0 5.0 0.00 0.00 0.00 78 1021.8
20260509120030 52 237 3.0 7.0 0.00 0.00 0.00 77 1021.6
20260509110031 54 229 5.0 12.0 0.00 0.00 0.00 74 1021.4
20260509104530 51 214 5.0 13.0 0.00 0.00 0.00 79 1021.4
20260509103033 50 58 2.0 9.0 0.00 0.00 0.00 80 1021.4
20260509101530 50 59 1.0 4.0 0.00 0.00 0.00 78 1021.5
20260509100027 51 133 1.0 3.0 0.00 0.00 0.00 75 1021.7
20260509091537 54 232 6.0 10.0 0.00 0.00 0.00 72 1022.0
20260509090031 53 257 5.0 8.0 0.00 0.00 0.00 74 1022.2
20260509081531 54 261 1.0 4.0 0.00 0.00 0.00 71 1022.3
20260509080030 55 260 5.0 8.0 0.00 0.00 0.00 70 1022.3
20260509074607 56 257 3.0 7.0 0.00 0.00 0.00 66 1022.4
20260509073032 57 266 3.0 6.0 0.00 0.00 0.00 64 1022.2
20260509071605 57 211 6.0 15.0 0.00 0.00 0.00 64 1022.1
20260509070033 58 244 3.0 14.0 0.00 0.00 0.00 62 1021.8
20260509064531 58 235 8.0 18.0 0.00 0.00 0.00 61 1021.7
20260509061534 58 242 13.0 23.0 0.00 0.00 0.00 61 1021.8
20260509060032 58 245 11.0 19.0 0.00 0.00 0.00 61 1022.1
20260509054530 58 246 10.0 16.0 0.00 0.00 0.00 61 1022.2
20260509051607 58 238 8.0 15.0 0.00 0.00 0.00 60 1022.3
20260509044534 59 222 8.0 14.0 0.00 0.00 0.00 59 1022.2
20260509043106 59 220 7.0 13.0 0.00 0.00 0.00 58 1022.1
20260509041530 59 223 6.0 11.0 0.00 0.00 0.00 57 1021.9
20260509040030 60 221 8.0 14.0 0.00 0.00 0.00 57 1021.6
20260509033031 61 227 9.0 19.0 0.00 0.00 0.00 54 1021.2
20260509031532 61 233 9.0 18.0 0.00 0.00 0.00 53 1020.9
20260509030031 62 231 10.0 21.0 0.00 0.00 0.00 51 1020.7
20260509023107 64 235 12.0 23.0 0.00 0.00 0.00 48 1020.5
20260509021529 65 234 12.0 23.0 0.00 0.00 0.00 47 1020.4
20260509020030 66 228 10.0 26.0 0.00 0.00 0.00 46 1020.3
20260509014530 66 233 10.0 18.0 0.00 0.00 0.00 46 1020.2
20260509013031 66 245 9.0 16.0 0.00 0.00 0.00 44 1020.2
20260509011531 67 248 9.0 19.0 0.00 0.00 0.00 44 1020.2
20260509010107 67 252 8.0 19.0 0.00 0.00 0.00 43 1020.1
20260509004532 67 249 10.0 19.0 0.00 0.00 0.00 42 1020.0